Location: ??
(35.4627°N, 139.3695°E)
Time: 15:50:53
(UTC+00:00)

NOSS 3-4 (A) - Pass Details

Date: 25 November 2020
Orbit: 879 x 1333 km, 63.4° (Epoch: 18 January)

Event Time Altitude Azimuth Distance (km) Brightness Sun altitude
Exits shadow 19:21:51 31° 209° (SSW) 1,485 4.3 -25.4°
Maximum altitude 19:24:46 88° 123° (ESE) 896 3.2 -24.9°
Drops below altitude 10° 19:30:52 10° 32° (NNE) 2,644 6.0 -23.6°
Sets 19:33:29 0° 32° (NNE) 3,642 6.8 -23.1°
